This is the latest recevied weather packets stored in our database for station/object K4OAM-13. If no packets are shown the sender has not sent any weather packets the latest 10 day(s).
| Time | Temp. | Humidity | Pressure | Rain* | Wind** | Luminosity | Snow |
|---|---|---|---|---|---|---|---|
| 1777836956 | 10.56° C | 88% | 1006.8 hPa | - | - | - | - |
| 1777836356 | 10° C | 93% | 1006.8 hPa | - | - | - | - |
| 1777835756 | 10.56° C | 94% | 1006.5 hPa | - | - | - | - |
| 1777835157 | 10.56° C | 94% | 1006.4 hPa | - | - | - | - |
| 1777834557 | 10.56° C | 92% | 1006.5 hPa | - | - | - | - |
| 1777833956 | 10.56° C | 94% | 1006.6 hPa | - | - | - | - |
| 1777833357 | 11.11° C | 91% | 1006.3 hPa | - | - | - | - |
| 1777832757 | 11.11° C | 92% | 1006.3 hPa | - | - | - | - |
| 1777832157 | 10.56° C | 92% | 1006.4 hPa | - | - | - | - |
| 1777831557 | 10.56° C | 91% | 1006.3 hPa | - | - | - | - |
| 1777830956 | 11.11° C | 90% | 1006.2 hPa | - | - | - | - |
| 1777830356 | 10.56° C | 93% | 1006.5 hPa | - | - | - | - |
| 1777829757 | 10.56° C | 91% | 1006.4 hPa | - | - | - | - |
| 1777829156 | 10.56° C | 89% | 1006.4 hPa | - | - | - | - |
| 1777828556 | 10.56° C | 90% | 1006.6 hPa | - | - | - | - |
| 1777827956 | 10° C | 91% | 1006.7 hPa | - | - | - | - |
| 1777827356 | 10.56° C | 90% | 1007 hPa | - | - | - | - |
| 1777826756 | 10.56° C | 91% | 1007.2 hPa | - | - | - | - |
| 1777826156 | 10° C | 93% | 1007.2 hPa | - | - | - | - |
| 1777825556 | 10° C | 94% | 1007.6 hPa | - | - | - | - |
| 1777824956 | 10° C | 95% | 1007.5 hPa | - | - | - | - |
| 1777824356 | 10° C | 97% | 1007.8 hPa | - | - | - | - |
| 1777823756 | 10° C | 97% | 1007.9 hPa | - | - | - | - |
| 1777823156 | 10° C | 96% | 1008 hPa | - | - | - | - |
| 1777822556 | 10° C | 98% | 1008 hPa | - | - | - | - |
* Rain since midnight (hover to see other rain measurements)
** Current wind speed in m/s (hover to see current wind gust speed)